LogoCoinalyze
    Ad-Free Version Главная Рынки Ставки финансирования
    Фьючерсные данные
    • Агрегированные данные (Коины)
    • Индивидуальные графики
    • Глобальные графики
    Оповещения
    TA
    Bitcoin Ethereum BNB Ripple Tron Dogecoin ZCash Monero UNUS SED LEO Chainlink Cardano Stellar Lumens Bitcoin Cash Litecoin Hedera Cronos Polkadot Ethereum Classic Algorand Cosmos Quant VeChain Dash Bitcoin SV BitTorrent Terra Tezos Decred Iota The Graph THETA MultiversX Decentraland NEO Chiliz Golem Basic Attention Token Horizen Qtum DigiByte 0x Beam RIF Token FTX Token Holo FUNToken aelf Zilliqa Ontology Nano Enjin Coin Ravencoin Mask Network Verge Siacoin Status WINk Waves IoTeX iExec RLC Power Ledger Steem Kyber Network Crystal Lisk Ark Ardor WOO Network IOST WAX Icon Storj Wanchain Loopring Bitcoin Diamond Augur AdEx Bitcoin Gold OmiseGO NEM MonaCoin BitShares Ren Komodo V Systems Nuls Mithril SOLVE EOS Maker Aion Nebulas HedgeTrade Bread Fetch.ai TomoChain Polygon Fantom Waltonchain GXChain Bytom Metaverse ETP MaidSafeCoin QASH
    Заказать:
    Еще
    • API
    • Паттерны свечей
    • Пожертвования
    • Контактная
    • Карта сайта
    • Privacy Policy
    • Disclaimer
    • Theme:
    Русский
    • English
    • Français
    • Deutsch
    • Türkçe
    • Nederlands
    • Português (BR)
    • Español
    • 한국어
    • 简体中文
    • 日本語
     
    Войти / Подписаться
    Markets/ Pepe/ PEPE к EUR/ PEPEEUR Bitstamp
    Trades
    WL
    Чат
    Стат
    Новости
    ⦷
    AAA
    0.00000299 443926200.39999998 07:38:28
    0.00000299 4343309.70000000 07:04:48
    0.00000299 6514964.60000000 07:04:47
    0.00000297 80.70000000 01:53:07
    0.00000297 46167000.00000000 01:53:07
    0.00000298 289490809.60000002 01:30:46
    0.00000294 119130386.09999999 21:26:02
    0.00000294 174375000.00000000 21:26:02
    0.00000294 3387809.50000000 21:20:49
    0.00000294 19987500.00000000 20:46:52
    0.00000295 292504000.00000000 20:24:47
    0.00000293 10000000.00000000 19:52:01
    0.00000294 57200000.00000000 19:13:45
    0.00000290 12671222.40000000 17:20:05
    0.00000290 10898400.00000000 17:20:05
    0.00000292 173189212.30000001 17:02:43
    0.00000292 87187500.00000000 17:02:43
    0.00000293 183549488.09999999 17:01:32
    0.00000292 90.90000000 15:00:30
    0.00000292 7385300.00000000 15:00:30
    0.00000293 10898400.00000000 13:27:07
    0.00000293 87187500.00000000 13:27:01
    0.00000293 87187500.00000000 13:26:58
    0.00000294 91820191.30000000 12:25:21
    0.00000294 10898400.00000000 12:25:21
    0.00000295 87187500.00000000 12:20:55
    0.00000295 124420400.00000000 12:20:55
    0.00000294 73.70000000 12:15:13
    0.00000294 17237100.00000000 12:15:13
    0.00000294 73.70000000 12:15:07
    0.00000294 17237100.00000000 12:15:07
    0.00000295 10898400.00000000 11:40:50
    0.00000295 10898400.00000000 11:40:50
    0.00000295 10898400.00000000 11:40:50
    0.00000295 10898400.00000000 11:40:49
    0.00000295 10898400.00000000 11:40:49
    0.00000295 10898400.00000000 11:40:48
    0.00000295 5373800.00000000 11:38:56
    0.00000295 10898400.00000000 11:38:01
    0.00000295 10898400.00000000 11:38:01
    0.00000295 10898400.00000000 11:38:01
    0.00000295 10898400.00000000 11:38:00
    0.00000295 10898400.00000000 11:35:10
    0.00000295 10898400.00000000 11:35:07
    0.00000295 10898400.00000000 11:35:07
    0.00000295 10898400.00000000 11:35:07
    0.00000295 10898400.00000000 11:35:06
    0.00000295 10898400.00000000 11:35:06
    0.00000295 10898400.00000000 11:35:06
    0.00000295 10898400.00000000 11:35:05
    0.00000295 10898400.00000000 11:35:05
    0.00000295 10898400.00000000 11:35:04
    0.00000295 10898400.00000000 11:35:00
    0.00000296 10898400.00000000 11:34:46
    0.00000296 10898400.00000000 11:34:46
    0.00000296 10898400.00000000 11:34:46
    0.00000296 10898400.00000000 11:34:46
    0.00000296 10898400.00000000 11:34:46
    0.00000296 10898400.00000000 11:34:45
    0.00000295 10898400.00000000 11:33:13
    0.00000296 10898400.00000000 11:33:13
    0.00000295 10898400.00000000 11:33:12
    0.00000295 33.70000000 08:52:57
    0.00000295 62508100.00000000 08:52:57
    0.00000295 27343700.00000000 08:52:57
    0.00000299 77.50000000 06:04:03
    0.00000299 36214400.00000000 06:03:56
    0.00000299 1902358800.00000000 05:55:37
    0.00000300 76289195.09999999 04:05:46
    0.00000300 37192100.00000000 04:05:46
    0.00000300 87187500.00000000 04:05:46
    0.00000300 87187500.00000000 04:05:46
    0.00000300 58.10000000 02:37:56
    0.00000300 287845100.00000000 02:37:56
    0.00000298 288568007.39999998 23:04:39
    0.00000298 288568007.39999998 23:04:39
    0.00000298 288568007.39999998 23:04:37
    0.00000298 288568007.39999998 23:04:13
    0.00000298 288568007.39999998 23:02:58
    0.00000298 288568007.39999998 23:02:57
    0.00000298 10898400.00000000 23:02:57
    0.00000298 288568007.39999998 23:02:48
    0.00000298 288568007.39999998 23:00:19
    0.00000298 288568007.39999998 23:00:11
    0.00000298 10898400.00000000 23:00:11
    0.00000298 288568007.39999998 22:59:41
    0.00000298 288568007.39999998 22:58:46
    0.00000298 79241711.80000000 22:58:45
    0.00000298 157446300.50000000 22:58:43
    0.00000298 108866458.70000000 22:58:41
    0.00000298 10898400.00000000 22:58:41
    0.00000298 288568007.39999998 22:58:40
    0.00000298 10898400.00000000 22:58:40
    0.00000298 288568007.39999998 22:54:48
    0.00000298 10898400.00000000 22:54:48
    0.00000298 67259222.59999999 22:52:44
    0.00000298 288568007.39999998 22:52:43
    0.00000298 10898400.00000000 22:52:43
    0.00000298 240730128.80000001 22:50:52
    0.00000298 10898400.00000000 22:50:52
    Выйти
    AAA
    Помощь
    🙂 🤣 😎 🤗 😛 😉 😜 🤑 🤔 😑 😴 😕 🙃 😲 😇 🙁 😢 😬 😟 😠 🕺 🏃 💪 ✌ 👌 👍 👎 👏 👋 🤝 🍺 🍻 🐋 🐟 🦈 🗽 🚄 ✈ 🛑 🚀 🏦 🌚 ⭐ 🌞 ⚡ 🏆 💰 💲 🔨 ❓ ❗ 💯 🔶 🏁
    ☺
    Войти или Подписаться и Чат
    24 Часа
    Изменения
    +1.36%
    Объем
    2,898,160,147
    Хай
    0.00000299
    Лоу
    0.00000290
    7 Дней
    Изменения
    -9.39%
    Объем
    117,159,400,821
    Хай
    0.00000343
    Лоу
    0.00000290
    30 Дней
    Изменения
    +19.12%
    Объем
    907,748,002,958
    Хай
    0.00000388
    Лоу
    0.00000219
    DOGE, SHIB, PEPE, or Something Else: Which Meme Coin Can Make History in September? (3 AIs Weigh In)
    "DOGE remains the most likely to record the largest move in dollar terms and lead the entire sector," ChatGPT stated.
    cryptopotato.com
    Sept 3, 2026 00:41
    Pepe price rallies 25% as whale demand and futures interest surge
    Key takeaways Pepe has gained 25% this week, including a combined 22% advance over the previous two days. Seven whale transactions worth more than $1 million each occurred Thursday, the highest...
    coinjournal.net
    Aug 21, 2026 08:41
    PEPE Supply on Exchanges Just Took a Massive Hit – What’s Next?
    A drop in PEPE exchange balances has added to bullish expectations despite muted trader interest.
    cryptopotato.com
    Aug 6, 2026 20:02
    PEPE Exchange Outflows Hit Nearly 2-Year High as Whales Accumulate
    Pepe (PEPE) recorded its largest single-day exchange outflow since November 2024, with 4.54 trillion tokens leaving trading platforms, signaling that holders are moving supply away from immediate...
    beincrypto.com
    Aug 6, 2026 04:57
    Meme Coin Based on White House Shooter Conspiracy Rallies 320%
    $HENRY surged 300% after a 2023 Pepe tweet appeared to name the White House shooter, fueling a viral time-travel meme. The post Meme Coin Based on White House Shooter Conspiracy Rallies 320%...
    beincrypto.com
    Apr 27, 2026 16:11
    PEPE surges 4% as market sentiment improves, eyes Key resistance breakout
    Key takeaways Pepe extends gains on Wednesday, stretching its rally from the 50-day EMA. Derivatives data show heightened retail activity as risk-on sentiment returns to the market. Pepe (PEPE) is...
    coinjournal.net
    Apr 22, 2026 11:44
    Why The PEPE Price Could Stage A 55X Rally To Reach New $0.0001 ATH
    The PEPE price has now started to edge back into bullish conversations after the recent inflows into the crypto market. The last time PEPE’s weekly chart printed the kind of structure now...
    newsbtc.com
    Apr 21, 2026 15:30
    Pepe (PEPE) surges 9%, drawing interest from whales
    Key takeaways PEPE is up 9% in the last 24 hours, making it one of the best performers among the top 50 cryptocurrencies by market cap. The rally comes amid renewed interest from whales and retail...
    coinjournal.net
    Apr 16, 2026 07:40
    Murad Says SPX6900 (SPX) Is Primed for a Rally — Is He Right This Time?
    Crypto influencer Murad Mahmudov claims SPX6900 (SPX) is stabilizing at the same market cap level where Dogecoin (DOGE) and Pepe (PEPE) consolidated before their explosive rallies. The...
    beincrypto.com
    Apr 5, 2026 21:36
    The Shiba Inu Of This Cycle: Analyst Shares Why It Is Better To Buy PEPE Now
    In the bull market cycle of 2021-2022, the Shiba Inu meme coin made waves in a way that changed the face of meme coins forever. This came after Dogecoin’s initial 36,000% rally, and Shiba Inu...
    newsbtc.com
    Apr 4, 2026 07:30
    PEPE Explodes by 18% Amid Altcoin Rally, BTC Tapped $74K: Market Watch
    The frog-themed meme coin is today's biggest gainer, followed by TAO, DOT, and BONK.
    cryptopotato.com
    Mar 16, 2026 10:56
    Should PEPE traders brace for volatility as short squeeze potential builds?
    The memecoin market has seen its collective market capitalization drop by 48% over the past year, and 6.9% over the past month, according to CoinMarketCap. According to Glassnode, the memecoin...
    ambcrypto.com
    Mar 7, 2026 18:00
    Просто напечатайте соответствующую команду в чате. Заменить никнейм 1 на действительный никнейм
    • /ignore nick1 Игнорировать пользователя чатом
    • /unignore nick1 Перестать игнорировать пользователя чатом
    • /ignorelist Показать проигнорированных пользователей чатом